User: anonymous
Location: Albany
(35.0000°S, 118.0000°E)
Time: 07:14:14
(UTC-04:00)
Language:

Cosmos 1758 Rocket - Orbit

View from above orbital plane
View from above orbital plane
View from above satellite
View from above satellite

Ground track
Ground track

The orbit data is extracted from the following two-line orbital elements,

1 16792U 86046B   14243.51493837  .00000275  00000-0  30994-4 0  5521
2 16792 082.4803 082.5498 0025448 055.8881 004.9612 14.82605045523610
Epoch (UTC): 31 August 2014 12:21:30
Eccentricity: 0.0025448
inclination: 82.4803°
perigee height: 603 km
apogee height: 639 km
right ascension of ascending node: 82.5498°
argument of perigee: 55.8881°
revolutions per day: 14.82605045
mean anomaly at epoch: 4.9612°
orbit number at epoch: 52361

The dashed part of the orbit path shows where the satellite is in the earth's shadow,  

DLR